This is the latest recevied weather packets stored in our database for station/object WW1TA. If no packets are shown the sender has not sent any weather packets the latest 10 day(s).
| Time | Temp. | Humidity | Pressure | Rain* | Wind** | Luminosity | Snow |
|---|---|---|---|---|---|---|---|
| 1777815656 | 15° C | 76% | 1021.7 hPa | 0 mm | - | 158 W/m² | - |
| 1777815353 | 14.44° C | 77% | 1021.5 hPa | 0 mm | - | 62 W/m² | - |
| 1777815050 | 14.44° C | 80% | 1021.3 hPa | 0 mm | - | 54 W/m² | - |
| 1777814746 | 13.89° C | 82% | 1021.4 hPa | 0 mm | - | 53 W/m² | - |
| 1777813837 | 13.33° C | 88% | 1021.5 hPa | 0 mm | - | 50 W/m² | - |
| 1777812627 | 12.22° C | 98% | 1021.5 hPa | 0 mm | - | 45 W/m² | - |
| 1777810810 | 11.11° C | 99% | 1021.3 hPa | 0 mm | - | 40 W/m² | - |
| 1777810507 | 11.11° C | 99% | 1021.4 hPa | 0 mm | - | 38 W/m² | - |
| 1777808690 | 10° C | 99% | 1021 hPa | 0 mm | - | 32 W/m² | - |
| 1777808386 | 9.44° C | 99% | 1020.9 hPa | 0 mm | - | 31 W/m² | - |
| 1777805962 | 8.33° C | 99% | 1020.4 hPa | 0 mm | - | 15 W/m² | - |
| 1777801724 | 8.89° C | 99% | 1019.2 hPa | 0 mm | - | 0 W/m² | - |
| 1777801118 | 8.89° C | 99% | 1019.2 hPa | 0 mm | - | 0 W/m² | - |
| 1777800814 | 8.89° C | 99% | 1019 hPa | 0 mm | - | 0 W/m² | - |
| 1777800509 | 8.89° C | 99% | 1019 hPa | 0 mm | - | 0 W/m² | - |
| 1777800206 | 8.89° C | 99% | 1018.9 hPa | 0 mm | - | 0 W/m² | - |
| 1777799907 | 8.89° C | 99% | 1018.9 hPa | 0 mm | - | 0 W/m² | - |
| 1777799603 | 8.89° C | 99% | 1018.8 hPa | 0 mm | - | 0 W/m² | - |
| 1777799300 | 9.44° C | 99% | 1018.7 hPa | 0 mm | - | 0 W/m² | - |
| 1777798995 | 9.44° C | 99% | 1018.9 hPa | 0 mm | - | 0 W/m² | - |
| 1777798692 | 9.44° C | 99% | 1019 hPa | 0 mm | - | 0 W/m² | - |
| 1777797480 | 9.44° C | 99% | 1018.8 hPa | 0 mm | - | 0 W/m² | - |
| 1777797178 | 9.44° C | 99% | 1018.7 hPa | 0 mm | - | 0 W/m² | - |
| 1777796874 | 9.44° C | 99% | 1018.8 hPa | 0 mm | - | 0 W/m² | - |
| 1777796571 | 9.44° C | 99% | 1018.5 hPa | 0 mm | - | 0 W/m² | - |
* Rain latest hour (hover to see other rain measurements)
** Current wind speed in m/s (hover to see current wind gust speed)